Flag for U.S.A. Weather past 2 weeks in Little Rock, Arkansas, U.S.A.

Now
70 °F

Passing clouds.


Feels Like: 71 °F
Forecast: 62 / 71 °F
Wind: 6 mph from East

Location: Adams Field

Current Time: Apr 17, 2015 at 10:27:33 PM

Latest Report: Apr 17, 2015 at 9:53 PM


Visibility: 10 mi

Pressure: 29.99 "Hg

Humidity: 79%

Dew point: 63 °F

Location of Little RockLocation

Historic Weather in Little Rock — Graph

°F

Little Rock temperature yesterday

Maximum temperature yesterday: 78 °F (at 3:53 PM)
Minimum temperature yesterday: 53 °F (at 5:53 AM)
Average temperature yesterday: 65 °F

Past Weeks' High & Low Weather Summary

 TemperatureHumidityPressure
High86 °F (Apr 9, 2:53 PM)94% (Apr 16, 8:01 AM)30.45 "Hg (Apr 16, 8:01 AM)
Low43 °F (Apr 4, 6:53 AM)18% (Apr 4, 5:53 PM)29.81 "Hg (Apr 9, 7:53 PM)
Average65 °F68%30.04 "Hg
* Reported Apr 2 8:53 PM — Apr 17 8:53 PM, Little Rock, Weather by CustomWeather, © 2015

Note: Actual official high and low records may vary slightly from our data, if they occured in-between our weather recording intervals... More about our weather records

Advertising

Little Rock weather history for previous 24 hours

 ConditionsComfort  
Time TempWeatherWind HumidityBarometerVisibility
8:53 PM
Fri, Apr 17
69 °FPassing clouds.6 mph79%29.96 "Hg10 mi
7:53 PM73 °FBroken clouds.5 mph69%29.96 "Hg10 mi
6:53 PM75 °FBroken clouds.6 mph62%29.96 "Hg10 mi
5:53 PM77 °FScattered clouds.7 mph56%29.95 "Hg10 mi
4:53 PM79 °FBroken clouds.3 mph50%29.97 "Hg10 mi
3:53 PM78 °FPartly sunny.7 mph54%29.97 "Hg10 mi
2:53 PM78 °FBroken clouds.16 mph60%30.00 "Hg10 mi
1:53 PM80 °FBroken clouds.12 mph52%30.01 "Hg10 mi
12:53 PM77 °FScattered clouds.6 mph64%30.03 "Hg10 mi
11:53 AM75 °FBroken clouds.6 mph69%30.04 "Hg10 mi
10:53 AM70 °FBroken clouds.No wind79%30.04 "Hg10 mi
9:53 AM67 °FMostly cloudy.No wind81%30.05 "Hg10 mi
8:53 AM65 °FLow clouds.6 mph87%30.03 "Hg10 mi
7:53 AM64 °FMostly cloudy.3 mph87%30.02 "Hg10 mi
6:53 AM63 °FPassing clouds.3 mph87%30.00 "Hg10 mi
5:53 AM64 °FMostly cloudy.No wind87%30.00 "Hg10 mi
4:53 AM63 °FHigh level clouds.5 mph90%29.98 "Hg10 mi
3:53 AM65 °FHigh level clouds.7 mph85%29.99 "Hg10 mi
2:53 AM64 °FOvercast.No wind87%30.00 "Hg10 mi
1:53 AM65 °FMostly cloudy.5 mph85%30.02 "Hg10 mi
12:53 AM66 °FMostly cloudy.6 mph81%30.03 "Hg10 mi
11:53 PM
Thu, Apr 16
66 °FPartly cloudy.7 mph81%30.03 "Hg10 mi
10:53 PM67 °FPassing clouds.3 mph79%30.05 "Hg10 mi
Weather by CustomWeather, © 2015

See weather overviewHow to use our weather pages